Miscellaneous Local Product
Issued by NWS North Platte, NE

Home | Current Version | Previous Version | Graphics & Text | Print | Product List | Glossary On
Versions: 1 2 3 4 5 6 7 8 9 10 11 12 13 14 15 16 17 18 19 20 21 22 23 24 25 26 27 28 29 30 31 32 33 34 35 36 37 38 39 40 41 42 43 44 45 46 47 48 49 50
000
AXUS43 KLBF 062110
MISLBF


WESTERN AND NORTH CENTRAL NEBRASKA HOURLY WEATHER ROUNDUP
NATIONAL WEATHER SERVICE NORTH PLATTE NE
300 PM CST TUE DEC 06 2016

NOTE: "FAIR" INDICATES FEW OR NO CLOUDS BELOW 12,000 FEET WITH NO
SIGNIFICANT WEATHER AND/OR OBSTRUCTIONS TO VISIBILITY.

NOTE: STATIONS NOT REPORTING VARIABLES SUCH AS SKY/WEATHER OR
PRESSURE ARE PROVIDED BY RAWS AND APRS NETWORKS AND ARE NOT UNDER
NATIONAL WEATHER SERVICE QUALITY CONTROL.

...OBSERVATIONS IN AND NEAR THE EASTERN PANHANDLE OF NEBRASKA...

CITY           SKY/WX    TMP DP  RH WIND       PRES   REMARKS
PINE RIDGE     SUNNY     19   8  62 W7        29.96F WCI  10
CHADRON        SUNNY     22   5  48 W14       29.99F WCI   9
ALLIANCE       SUNNY     27   1  32 NW15      29.91F WCI  15
SIDNEY         CLOUDY    27  -5  24 N3        29.92F
CRESCENT LAKE    N/A     26   2  34 N9          N/A  WCI  17
$$

...OBSERVATIONS IN NORTHERN NEBRASKA AND FAR SOUTHERN SOUTH DAKOTA...

CITY           SKY/WX    TMP DP  RH WIND       PRES   REMARKS
WINNER         FAIR      22   6  50 NW26G32   29.99S WCI   5
VALENTINE      SUNNY     23   3  42 NW20G26   29.98S WCI   8
THEDFORD       SUNNY     32   5  32 NW15G22   29.96S WCI  21
AINSWORTH      SUNNY     26   4  39 NW21G28   29.97S WCI  11
O`NEILL        SUNNY     28   5  38 NW21G31   29.97S WCI  14
ORD            SUNNY     31   1  28 NW21      29.98S WCI  18
BROKEN BOW     SUNNY     32   5  32 N8        29.98S WCI  25
VALENTINE NWR    N/A     27   3  35 NW16G23     N/A  WCI  15
BUTTE            N/A     21   8  57 W28G38      N/A  WCI   3
HALSEY           N/A     50   2  14 NW7G16      N/A
CHAMBERS         N/A     28   4  36 MISG        N/A
EWING            N/A     28   9  44 NW17G28     N/A  WCI  16
$$

...OBSERVATIONS IN SOUTHWEST NEBRASKA AND FAR NORTHEAST COLORADO...

CITY           SKY/WX    TMP DP  RH WIND       PRES   REMARKS
WRAY           FAIR      36  -8  15 CALM      29.96
HOLYOKE        FAIR      36  -4  18 NE3       29.95F
IMPERIAL       SUNNY     33  -1  23 NW13      29.97F WCI  24
OGALLALA       SUNNY     31   3  29 NW8       29.97F WCI  24
NORTH PLATTE   SUNNY     34   3  27 NW13      29.99F WCI  25
MCCOOK         SUNNY     35   3  26 W9        30.00F WCI  28
LEXINGTON      SUNNY     35   4  27 W12G21    30.00S WCI  27
STAPLETON        N/A     31   3  30 CALM        N/A
GOTHENBURG       N/A     33   4  29 W7          N/A  WCI  27
CALLAWAY         N/A     32   6  32 NW13        N/A  WCI  22
$$

...OBSERVATIONS IN CENTRAL LINCOLN COUNTY AREA...

CITY           SKY/WX    TMP DP  RH WIND       PRES   REMARKS
N.P. AIRPORT   SUNNY     34   3  27 NW13      29.99F WCI  25
N.P. DOWNTOWN    N/A     32   6  33 NW6G13      N/A  WCI  26
N.P. SOUTHEAST   N/A     32   6  32 NW3         N/A
N.P. HILLCREST   N/A     32   6  33 NW12G20     N/A  WCI  23
$$

...SOME OBSERVATIONS FROM AROUND THE REGION...

CITY           SKY/WX    TMP DP  RH WIND       PRES   REMARKS
LARAMIE        CLOUDY    17 -17  21 SE3       29.70F
CHEYENNE       CLOUDY    22  -7  27 S10       29.80S WCI  11
DENVER         PTSUNNY   30   2  30 SE21      29.79F WCI  17
AKRON          SUNNY     29 -14  15 VRB3      29.90F
SCOTTSBLUFF    SUNNY     26   0  32 NW8       29.92F WCI  18
RAPID CITY     SUNNY     19   2  47 N23G32    29.95S WCI   2
BISMARCK       LGT SNOW   8   6  92 W29G44    29.90R FOG     WCI -15
PIERRE         CLOUDY    14   5  67 W28       29.98R WCI  -6
SIOUX FALLS    MOSUNNY   22  11  62 W24G35    29.88R WCI   5
OMAHA          SUNNY     34   9  35 W23G29    29.99R WCI  22
GRAND ISLAND   SUNNY     34   7  32 NW20      30.02R WCI  23
KANSAS CITY    MOSUNNY   37  13  37 NW8       30.04S WCI  31
WICHITA        MOSUNNY   39  14  36 N10       30.06F WCI  32
OKLAHOMA CITY  PTSUNNY   44  21  40 N10       30.03F
DALLAS         CLOUDY    50  41  71 N12       30.00R
AMARILLO       SUNNY     36   5  27 MISG      30.02F
DODGE CITY     MOSUNNY   35   4  27 N6        30.05F WCI  30
HAYS           SUNNY     38   6  26 NW12      30.05F WCI  30
GOODLAND       SUNNY     33  -3  21 CALM      29.96F
$$




USA.gov is the U.S. government's official web portal to all federal, state and local government web resources and services.